Location: Newark
(47.5833°N, 8.1500°E)
Time: 18:35:57
(UTC+00:00)

Transit 2A - Pass Details

Date: 31 October 2020
Orbit: 595 x 964 km, 66.7° (Epoch: 01 December)

Event Time Altitude Azimuth Distance (km) Brightness Sun altitude
Rises 23:17:33 0° 197° (SSW) 3,617 - -56.9°
Reaches altitude 10° 23:20:08 10° 193° (SSW) 2,688 - -56.9°
Maximum altitude 23:26:19 56° 117° (ESE) 1,128 - -56.8°
Drops below altitude 10° 23:32:25 10° 41° (NE) 2,647 - -56.6°
Sets 23:34:56 0° 38° (NE) 3,558 - -56.5°
